Greenville Downtown, SC

12:08 PM EDT on April 25, 2017 (GMT -0400)
Greenville Downtown

Weather History for KGMU - May, 2014

Change the Weather History Date:

Thursday, May 29, 2014

  Actual Average Record
Temperature  
Mean Temperature 78 °F -  
Max Temperature 89 °F 80 °F 90 °F (2006)
Min Temperature 69 °F 60 °F 55 °F (1997)
Cooling Degree Days 14    
Growing Degree Days 28 (Base 50)    
Moisture  
Dew Point 65 °F    
Average Humidity 69    
Maximum Humidity 87    
Minimum Humidity 40    
Precipitation  
Precipitation 0.24 in - - ()
Sea Level Pressure  
Sea Level Pressure 30.03 in    
Wind  
Wind Speed 5 mph (WNW)    
Max Wind Speed 18 mph    
Max Gust Speed 18 mph    
Visibility 9 miles    
Events Rain , Thunderstorm    
Averages and records for this station are not official NWS values.
T = Trace of Precipitation, MM = Missing Value Source: NWS Daily Summary

Daily Weather History Graph

Daily Weather History Graph

Search for Another Location

Airport or City:

Trip Planner

Search our weather history database for the weather conditions in past years. The results will help you decide how hot, cold, wet, or windy it might be!

Date:

Astronomy

May. 29, 2014 Rise Set
Actual Time 6:18 AM EDT 8:35 PM EDT
Civil Twilight 5:49 AM EDT 9:04 PM EDT
Nautical Twilight 5:13 AM EDT 9:40 PM EDT
Astronomical Twilight 4:35 AM EDT 10:19 PM EDT
Moon 7:08 AM EDT (5/29) 9:27 PM EDT (5/29)
Length of Visible Light 15h 15m
Length of Day
14h 17m
New Moon, 1% of the Moon is Illuminated
May 29
New Moon
Jun 5
First Quarter
Jun 13
Full
Jun 19
Last Quarter
Jun 27
New

Hourly Weather History & Observations

Time (EDT) Temp. Heat Index Dew Point Humidity Pressure Visibility Wind Dir Wind Speed Gust Speed Precip Events Conditions
12:53 AM 73.9 °F - 64.0 °F 71% 30.04 in 10.0 mi Calm Calm - N/A   Clear
2:53 AM 72.0 °F - 64.0 °F 76% 30.00 in 10.0 mi West 3.5 mph - N/A   Clear
4:53 AM 70.0 °F - 64.0 °F 81% 29.99 in 10.0 mi Calm Calm - N/A   Clear
5:53 AM 69.1 °F - 64.0 °F 84% 30.00 in 10.0 mi NW 3.5 mph - N/A   Clear
6:53 AM 69.1 °F - 64.0 °F 84% 30.02 in 10.0 mi SW 3.5 mph - N/A   Clear
7:53 AM 71.1 °F - 64.9 °F 81% 30.04 in 10.0 mi West 4.6 mph - N/A   Clear
8:53 AM 75.0 °F - 66.0 °F 73% 30.05 in 10.0 mi West 4.6 mph - N/A   Clear
9:53 AM 80.1 °F 81.9 °F 64.9 °F 60% 30.06 in 9.0 mi Variable 3.5 mph - N/A   Clear
10:53 AM 82.9 °F 84.6 °F 64.9 °F 54% 30.06 in 10.0 mi SSW 4.6 mph - N/A   Mostly Cloudy
11:53 AM 84.0 °F 84.9 °F 63.0 °F 49% 30.06 in 10.0 mi Variable 5.8 mph - N/A   Clear
12:53 PM 86.0 °F 86.8 °F 63.0 °F 46% 30.05 in 10.0 mi Variable 6.9 mph - N/A   Clear
1:53 PM 88.0 °F 87.9 °F 61.0 °F 40% 30.03 in 10.0 mi SSW 9.2 mph - N/A   Partly Cloudy
2:53 PM 87.1 °F 87.5 °F 62.1 °F 43% 30.01 in 10.0 mi South 4.6 mph - N/A   Clear
3:23 PM 87.1 °F 87.8 °F 63.0 °F 44% 30.04 in 10.0 mi SSW 5.8 mph - N/A Thunderstorm Mostly Cloudy
3:53 PM 87.1 °F 89.2 °F 66.0 °F 49% 29.99 in 10.0 mi NNW 13.8 mph 18.4 mph N/A Thunderstorm Thunderstorm
4:21 PM 82.0 °F 83.1 °F 63.0 °F 52% 30.02 in 10.0 mi North 11.5 mph - N/A Thunderstorm Mostly Cloudy
4:45 PM 78.1 °F - 66.0 °F 66% 30.04 in 1.8 mi Calm Calm - 0.09 in Rain , Thunderstorm Heavy Rain
4:50 PM 75.2 °F - 66.2 °F 73% 30.04 in 3.0 mi North 18.4 mph - 0.19 in Rain , Thunderstorm Heavy Thunderstorms and Rain
4:53 PM 73.9 °F - 66.0 °F 76% 30.02 in 3.0 mi North 18.4 mph - 0.22 in Rain , Thunderstorm Heavy Thunderstorms and Rain
6:23 PM 71.1 °F - 66.9 °F 87% 30.04 in 10.0 mi WNW 8.1 mph - 0.01 in Rain Light Rain
6:53 PM 71.1 °F - 66.9 °F 87% 30.02 in 10.0 mi WNW 5.8 mph - 0.01 in   Overcast
7:53 PM 70.0 °F - 66.0 °F 87% 30.02 in 10.0 mi NW 4.6 mph - 0.01 in Rain Light Rain
8:53 PM 70.0 °F - 66.0 °F 87% 30.04 in 10.0 mi SW 3.5 mph - 0.00 in   Mostly Cloudy
9:53 PM 71.1 °F - 66.0 °F 84% 30.06 in 10.0 mi ENE 4.6 mph - N/A   Scattered Clouds
10:53 PM 71.1 °F - 66.0 °F 84% 30.08 in 10.0 mi ENE 5.8 mph - N/A   Partly Cloudy
11:53 PM 70.0 °F - 64.9 °F 84% 30.08 in 10.0 mi ENE 9.2 mph - N/A   Scattered Clouds